Location: Uhersky Brod
(49.0330°N, 17.6500°E)
Time: 12:41:47
(UTC+02:00)

ISS - Pass Details

Date: 24 May 2025
Orbit: 415 x 418 km, 51.6° (Epoch: 19 June)

Event Time Altitude Azimuth Distance (km) Brightness Sun altitude
Rises 21:24:15 0° 289° (WNW) 2,363 1.5 -6.9°
Reaches altitude 10° 21:26:25 10° 282° (WNW) 1,495 0.1 -7.1°
Maximum altitude 21:29:35 40° 212° (SSW) 630 -3.0 -7.5°
Enters shadow 21:32:39 11° 141° (SE) 1,450 -1.7 -7.9°
